AVA650 KFLL-MMMX

Flight info

Callsign AVA650
Flight time N/A
Altitude 35000
Route MAYNR2 CANOA CUN ENAGA3B
Aircraft A320/M-SDE3FGIJ1KRWXY/S

Departure

Time 2026-05-04 01:02
Airport Fort Lauderdale Hollywood International Airport (KFLL)

Arrival

Time N/A
Airport Mexico City Benito Juárez International Airport (MMMX)
Time Latitude Longitude Altitude Speed Heading
2026-05-04 00:23 26.07310 -80.14728 19 ft 0 kts 68°
2026-05-04 00:43 26.07306 -80.14739 20 ft 2 kts 68°
2026-05-04 00:44 26.07300 -80.14756 19 ft 2 kts 68°
2026-05-04 00:44 26.07294 -80.14773 19 ft 2 kts 66°
2026-05-04 00:44 26.07285 -80.14788 21 ft 2 kts 33°
2026-05-04 00:44 26.07277 -80.14793 20 ft 0 kts 14°
2026-05-04 00:51 26.07285 -80.14788 21 ft 1 kts 32°
2026-05-04 00:52 26.07308 -80.14794 21 ft 7 kts 347°
2026-05-04 00:52 26.07345 -80.14804 17 ft 4 kts 345°
2026-05-04 00:53 26.07356 -80.14810 17 ft 0 kts 319°
2026-05-04 00:53 26.07366 -80.14849 17 ft 10 kts 277°
2026-05-04 00:53 26.07374 -80.14907 16 ft 6 kts 281°
2026-05-04 00:53 26.07383 -80.14929 17 ft 1 kts 300°
2026-05-04 00:54 26.07393 -80.14943 16 ft 7 kts 312°
2026-05-04 00:54 26.07453 -80.15002 15 ft 16 kts 315°
2026-05-04 00:54 26.07492 -80.15123 14 ft 19 kts 271°
2026-05-04 00:54 26.07489 -80.15302 11 ft 27 kts 271°
2026-05-04 00:55 26.07492 -80.15503 12 ft 25 kts 270°
2026-05-04 00:55 26.07489 -80.15702 14 ft 25 kts 269°
2026-05-04 00:55 26.07494 -80.15889 15 ft 24 kts 271°
2026-05-04 00:55 26.07495 -80.16068 19 ft 23 kts 270°
2026-05-04 00:56 26.07497 -80.16245 19 ft 23 kts 270°
2026-05-04 00:56 26.07499 -80.16431 18 ft 24 kts 272°
2026-05-04 00:56 26.07517 -80.16550 19 ft 13 kts 315°
2026-05-04 00:56 26.07525 -80.16555 18 ft 0 kts 328°
2026-05-04 00:59 26.07530 -80.16558 18 ft 2 kts 336°
2026-05-04 00:59 26.07547 -80.16560 18 ft 3 kts 355°
2026-05-04 00:59 26.07574 -80.16561 17 ft 4 kts 359°
2026-05-04 00:59 26.07611 -80.16561 16 ft 6 kts
2026-05-04 01:00 26.07654 -80.16561 16 ft 7 kts
2026-05-04 01:00 26.07689 -80.16543 16 ft 5 kts 65°
2026-05-04 01:00 26.07693 -80.16510 19 ft 0 kts 90°
2026-05-04 01:01 26.07694 -80.16494 18 ft 17 kts 90°
2026-05-04 01:01 26.07693 -80.16081 17 ft 88 kts 91°
2026-05-04 01:01 26.07686 -80.15162 11 ft 144 kts 91°
2026-05-04 01:01 26.07715 -80.13914 272 ft 167 kts 87°
2026-05-04 01:02 26.07744 -80.12640 1016 ft 167 kts 88°
2026-05-04 01:02 26.07762 -80.11324 1591 ft 177 kts 88°
2026-05-04 01:02 26.07775 -80.09871 1887 ft 199 kts 89°
2026-05-04 01:02 26.07787 -80.08242 2133 ft 223 kts 89°
2026-05-04 01:03 26.07800 -80.06423 2490 ft 247 kts 89°
2026-05-04 01:03 26.07813 -80.04429 2981 ft 265 kts 90°
2026-05-04 01:03 26.07827 -80.02344 3709 ft 273 kts 90°
2026-05-04 01:03 26.07841 -80.00211 4489 ft 279 kts 90°
2026-05-04 01:04 26.07874 -79.98020 4877 ft 286 kts 89°
2026-05-04 01:04 26.07916 -79.95805 4992 ft 286 kts 92°
2026-05-04 01:04 26.07511 -79.93654 5276 ft 285 kts 118°
2026-05-04 01:04 26.06443 -79.91922 6494 ft 265 kts 138°
2026-05-04 01:05 26.04980 -79.90750 7293 ft 258 kts 161°
2026-05-04 01:05 26.03266 -79.90292 8016 ft 253 kts 183°
2026-05-04 01:05 26.01545 -79.90554 8733 ft 249 kts 203°
2026-05-04 01:05 26.00018 -79.91425 9448 ft 248 kts 216°
2026-05-04 01:06 25.98553 -79.92453 10167 ft 250 kts 216°
2026-05-04 01:06 25.97071 -79.93484 10839 ft 252 kts 215°
2026-05-04 01:06 25.95576 -79.94519 11515 ft 254 kts 215°
2026-05-04 01:06 25.94068 -79.95561 12194 ft 256 kts 215°
2026-05-04 01:07 25.92552 -79.96607 12881 ft 257 kts 215°
2026-05-04 01:07 25.91025 -79.97662 13542 ft 259 kts 215°
2026-05-04 01:07 25.89488 -79.98725 14163 ft 261 kts 215°
2026-05-04 01:07 25.87942 -79.99793 14758 ft 262 kts 215°
2026-05-04 01:08 25.86387 -80.00867 15348 ft 264 kts 216°
2026-05-04 01:08 25.84828 -80.01946 15947 ft 265 kts 216°
2026-05-04 01:08 25.83227 -80.03052 16229 ft 280 kts 216°
2026-05-04 01:08 25.81514 -80.04241 16359 ft 300 kts 215°
2026-05-04 01:09 25.79693 -80.05504 16467 ft 318 kts 215°
2026-05-04 01:09 25.77761 -80.06840 16610 ft 335 kts 215°
2026-05-04 01:09 25.75729 -80.08240 16733 ft 352 kts 215°
2026-05-04 01:09 25.73605 -80.09704 16866 ft 366 kts 215°
2026-05-04 01:10 25.71413 -80.11214 17186 ft 374 kts 214°
2026-05-04 01:10 25.69188 -80.12742 17658 ft 378 kts 214°
2026-05-04 01:10 25.66943 -80.14279 18162 ft 380 kts 215°
2026-05-04 01:10 25.64688 -80.15824 18625 ft 382 kts 215°
2026-05-04 01:11 25.62419 -80.17379 19066 ft 384 kts 215°
2026-05-04 01:11 25.60140 -80.18941 19501 ft 386 kts 215°
2026-05-04 01:11 25.57851 -80.20513 19944 ft 388 kts 215°
2026-05-04 01:11 25.55554 -80.22094 20381 ft 389 kts 215°
2026-05-04 01:12 25.53247 -80.23679 20813 ft 391 kts 216°
2026-05-04 01:12 25.50967 -80.25247 21228 ft 393 kts 216°
2026-05-04 01:12 25.48607 -80.26869 21649 ft 395 kts 216°
2026-05-04 01:12 25.46301 -80.28453 22053 ft 396 kts 216°
2026-05-04 01:13 25.43952 -80.30064 22462 ft 398 kts 216°
2026-05-04 01:13 25.41589 -80.31680 22857 ft 400 kts 216°
2026-05-04 01:13 25.39217 -80.33304 23245 ft 402 kts 216°
2026-05-04 01:13 25.37158 -80.34711 23564 ft 403 kts 216°